| time (UTC) | temp F | wind direction | speed MPH | gust MPH | rain 1hr in | rain 24hr in | rain mn in | humidity % | barometer mb |
| 20260508211455 | 63 | 215 | 0.0 | 5.0 | 0.00 | 0.00 | 0.00 | 47 | 1026.3 |
| 20260508210952 | 63 | 149 | 0.0 | 0.0 | 0.00 | 0.00 | 0.00 | 48 | 1026.2 |
| 20260508210449 | 64 | 219 | 0.0 | 0.0 | 0.00 | 0.00 | 0.00 | 47 | 1026.2 |
| 20260508205945 | 64 | 205 | 0.0 | 0.0 | 0.00 | 0.00 | 0.00 | 47 | 1026.3 |
| 20260508205443 | 63 | 210 | 0.0 | 7.0 | 0.00 | 0.00 | 0.00 | 46 | 1025.9 |
| 20260508204939 | 64 | 172 | 0.0 | 10.0 | 0.00 | 0.00 | 0.00 | 48 | 1026.1 |
| 20260508204437 | 63 | 314 | 0.0 | 7.0 | 0.00 | 0.00 | 0.00 | 47 | 1026.2 |
| 20260508203931 | 63 | 208 | 0.0 | 10.0 | 0.00 | 0.00 | 0.00 | 48 | 1026.0 |
| 20260508203428 | 62 | 147 | 1.0 | 5.0 | 0.00 | 0.00 | 0.00 | 48 | 1026.0 |
| 20260508202924 | 62 | 183 | 0.0 | 5.0 | 0.00 | 0.00 | 0.00 | 49 | 1026.0 |
| 20260508202421 | 60 | 157 | 0.0 | 7.0 | 0.00 | 0.00 | 0.00 | 51 | 1026.0 |
| 20260508201918 | 61 | 212 | 1.0 | 12.0 | 0.00 | 0.00 | 0.00 | 49 | 1025.8 |
| 20260508201415 | 60 | 315 | 1.0 | 5.0 | 0.00 | 0.00 | 0.00 | 52 | 1025.9 |
| 20260508200912 | 61 | 303 | 4.0 | 7.0 | 0.00 | 0.00 | 0.00 | 51 | 1025.9 |
| 20260508200409 | 62 | 264 | 3.0 | 10.0 | 0.00 | 0.00 | 0.00 | 49 | 1026.1 |
| 20260508195904 | 62 | 149 | 0.0 | 10.0 | 0.00 | 0.00 | 0.00 | 48 | 1025.9 |
| 20260508195401 | 64 | 206 | 0.0 | 7.0 | 0.00 | 0.00 | 0.00 | 47 | 1026.1 |
| 20260508194857 | 62 | 137 | 2.0 | 12.0 | 0.00 | 0.00 | 0.00 | 49 | 1025.7 |
| 20260508194354 | 62 | 211 | 1.0 | 10.0 | 0.00 | 0.00 | 0.00 | 49 | 1025.9 |
| 20260508193851 | 63 | 264 | 0.0 | 7.0 | 0.00 | 0.00 | 0.00 | 46 | 1026.0 |
| 20260508193348 | 62 | 219 | 1.0 | 7.0 | 0.00 | 0.00 | 0.00 | 48 | 1025.9 |
| 20260508192844 | 62 | 163 | 5.0 | 7.0 | 0.00 | 0.00 | 0.00 | 49 | 1025.9 |
| 20260508192341 | 61 | 168 | 3.0 | 7.0 | 0.00 | 0.00 | 0.00 | 49 | 1025.8 |
| 20260508191838 | 61 | 241 | 0.0 | 3.0 | 0.00 | 0.00 | 0.00 | 50 | 1025.8 |
| 20260508191336 | 61 | 221 | 2.0 | 5.0 | 0.00 | 0.00 | 0.00 | 50 | 1026.0 |
| 20260508190833 | 59 | 239 | 0.0 | 10.0 | 0.00 | 0.00 | 0.00 | 54 | 1025.9 |
| 20260508190329 | 60 | 279 | 6.0 | 10.0 | 0.00 | 0.00 | 0.00 | 52 | 1026.1 |
| 20260508185826 | 59 | 176 | 1.0 | 5.0 | 0.00 | 0.00 | 0.00 | 54 | 1026.0 |
| 20260508185323 | 58 | 188 | 1.0 | 12.0 | 0.00 | 0.00 | 0.00 | 56 | 1025.9 |
| 20260508184820 | 58 | 252 | 0.0 | 5.0 | 0.00 | 0.00 | 0.00 | 56 | 1025.7 |
| 20260508184317 | 57 | 247 | 0.0 | 5.0 | 0.00 | 0.00 | 0.00 | 57 | 1026.0 |
| 20260508183814 | 57 | 191 | 0.0 | 3.0 | 0.00 | 0.00 | 0.00 | 58 | 1026.3 |
| 20260508183311 | 56 | 245 | 0.0 | 0.0 | 0.00 | 0.00 | 0.00 | 59 | 1025.9 |
| 20260508182806 | 56 | 237 | 0.0 | 10.0 | 0.00 | 0.00 | 0.00 | 60 | 1025.9 |
| 20260508182306 | 57 | 199 | 1.0 | 5.0 | 0.00 | 0.00 | 0.00 | 59 | 1025.9 |
| 20260508181759 | 56 | 144 | 0.0 | 5.0 | 0.00 | 0.00 | 0.00 | 60 | 1025.8 |
| 20260508181256 | 57 | 219 | 0.0 | 3.0 | 0.00 | 0.00 | 0.00 | 60 | 1025.6 |
| 20260508180753 | 57 | 218 | 0.0 | 3.0 | 0.00 | 0.00 | 0.00 | 60 | 1025.8 |
| 20260508180250 | 56 | 216 | 1.0 | 5.0 | 0.00 | 0.00 | 0.00 | 60 | 1025.5 |
| 20260508175746 | 56 | 240 | 0.0 | 3.0 | 0.00 | 0.00 | 0.00 | 61 | 1025.4 |
| 20260508175243 | 56 | 215 | 0.0 | 0.0 | 0.00 | 0.00 | 0.00 | 61 | 1025.5 |
| 20260508174741 | 56 | 253 | 0.0 | 3.0 | 0.00 | 0.00 | 0.00 | 61 | 1025.4 |
| 20260508174238 | 57 | 240 | 0.0 | 3.0 | 0.00 | 0.00 | 0.00 | 61 | 1025.5 |
| 20260508173734 | 56 | 183 | 0.0 | 5.0 | 0.00 | 0.00 | 0.00 | 62 | 1025.4 |
| 20260508173231 | 56 | 164 | 0.0 | 3.0 | 0.00 | 0.00 | 0.00 | 62 | 1025.3 |
| 20260508172727 | 55 | 218 | 0.0 | 5.0 | 0.00 | 0.00 | 0.00 | 63 | 1025.0 |
| 20260508172224 | 56 | 203 | 0.0 | 3.0 | 0.00 | 0.00 | 0.00 | 61 | 1025.2 |
| 20260508171721 | 57 | 229 | 0.0 | 0.0 | 0.00 | 0.00 | 0.00 | 61 | 1024.9 |
| 20260508171217 | 57 | 235 | 0.0 | 0.0 | 0.00 | 0.00 | 0.00 | 63 | 1024.9 |
| 20260508170714 | 56 | 194 | 0.0 | 5.0 | 0.00 | 0.00 | 0.00 | 63 | 1024.8 |
| 20260508170212 | 55 | 240 | 0.0 | 3.0 | 0.00 | 0.00 | 0.00 | 65 | 1024.9 |
| 20260508165709 | 54 | 182 | 0.0 | 7.0 | 0.00 | 0.00 | 0.00 | 66 | 1024.6 |
| 20260508165206 | 54 | 114 | 0.0 | 0.0 | 0.00 | 0.00 | 0.00 | 66 | 1024.6 |
| 20260508164702 | 54 | 235 | 0.0 | 0.0 | 0.00 | 0.00 | 0.00 | 66 | 1024.7 |
| 20260508164159 | 54 | 162 | 0.0 | 0.0 | 0.00 | 0.00 | 0.00 | 66 | 1024.9 |
| 20260508163657 | 53 | 214 | 0.0 | 0.0 | 0.00 | 0.00 | 0.00 | 68 | 1024.7 |
| 20260508163154 | 53 | 212 | 0.0 | 0.0 | 0.00 | 0.00 | 0.00 | 68 | 1024.8 |
| 20260508162649 | 53 | 134 | 0.0 | 7.0 | 0.00 | 0.00 | 0.00 | 68 | 1024.5 |
| 20260508162147 | 53 | 155 | 3.0 | 7.0 | 0.00 | 0.00 | 0.00 | 68 | 1024.6 |
| 20260508161644 | 54 | 176 | 0.0 | 0.0 | 0.00 | 0.00 | 0.00 | 67 | 1024.6 |
| 20260508161142 | 54 | 194 | 0.0 | 0.0 | 0.00 | 0.00 | 0.00 | 68 | 1024.5 |
| 20260508160639 | 53 | 201 | 0.0 | 0.0 | 0.00 | 0.00 | 0.00 | 69 | 1024.3 |
| 20260508160137 | 53 | 243 | 0.0 | 0.0 | 0.00 | 0.00 | 0.00 | 70 | 1024.6 |
| 20260508155634 | 53 | 122 | 0.0 | 0.0 | 0.00 | 0.00 | 0.00 | 70 | 1024.6 |
| 20260508155131 | 53 | 198 | 1.0 | 5.0 | 0.00 | 0.00 | 0.00 | 70 | 1024.6 |
| 20260508154628 | 53 | 151 | 0.0 | 3.0 | 0.00 | 0.00 | 0.00 | 71 | 1024.7 |
| 20260508154124 | 52 | 187 | 0.0 | 12.0 | 0.00 | 0.00 | 0.00 | 71 | 1024.4 |
| 20260508153621 | 53 | 136 | 0.0 | 3.0 | 0.00 | 0.00 | 0.00 | 71 | 1024.6 |
| 20260508153118 | 53 | 117 | 0.0 | 0.0 | 0.00 | 0.00 | 0.00 | 71 | 1024.6 |
| 20260508152615 | 53 | 111 | 1.0 | 5.0 | 0.00 | 0.00 | 0.00 | 71 | 1024.8 |
| 20260508152109 | 52 | 164 | 3.0 | 5.0 | 0.00 | 0.00 | 0.00 | 72 | 1024.9 |
| 20260508151607 | 52 | 162 | 0.0 | 3.0 | 0.00 | 0.00 | 0.00 | 74 | 1024.8 |
| 20260508151104 | 51 | 141 | 0.0 | 5.0 | 0.00 | 0.00 | 0.00 | 74 | 1024.9 |
| 20260508150601 | 52 | 185 | 0.0 | 0.0 | 0.00 | 0.00 | 0.00 | 75 | 1024.9 |
| 20260508150057 | 52 | 202 | 0.0 | 0.0 | 0.00 | 0.00 | 0.00 | 75 | 1024.6 |
| 20260508145554 | 51 | 195 | 0.0 | 0.0 | 0.00 | 0.00 | 0.00 | 75 | 1024.7 |
| 20260508145050 | 51 | 164 | 0.0 | 7.0 | 0.00 | 0.00 | 0.00 | 75 | 1024.6 |
| 20260508144548 | 51 | 107 | 0.0 | 3.0 | 0.00 | 0.00 | 0.00 | 76 | 1024.7 |
| 20260508144045 | 51 | 167 | 3.0 | 5.0 | 0.00 | 0.00 | 0.00 | 77 | 1024.6 |
| 20260508143543 | 51 | 202 | 0.0 | 0.0 | 0.00 | 0.00 | 0.00 | 77 | 1024.4 |
| 20260508143039 | 51 | 174 | 0.0 | 0.0 | 0.00 | 0.00 | 0.00 | 77 | 1024.3 |
| 20260508142536 | 51 | 198 | 0.0 | 0.0 | 0.00 | 0.00 | 0.00 | 77 | 1024.1 |
| 20260508142032 | 50 | 200 | 0.0 | 0.0 | 0.00 | 0.00 | 0.00 | 77 | 1024.2 |
| 20260508141529 | 50 | 204 | 0.0 | 0.0 | 0.00 | 0.00 | 0.00 | 78 | 1024.2 |
| 20260508141027 | 50 | 227 | 0.0 | 0.0 | 0.00 | 0.00 | 0.00 | 78 | 1023.9 |
| 20260508140524 | 50 | 230 | 0.0 | 0.0 | 0.00 | 0.00 | 0.00 | 79 | 1023.8 |
| 20260508140020 | 50 | 206 | 0.0 | 0.0 | 0.00 | 0.00 | 0.00 | 79 | 1023.8 |
| 20260508135516 | 50 | 195 | 0.0 | 0.0 | 0.00 | 0.00 | 0.00 | 79 | 1023.6 |
| 20260508135012 | 50 | 152 | 0.0 | 0.0 | 0.00 | 0.00 | 0.00 | 79 | 1023.5 |
| 20260508134509 | 50 | 166 | 0.0 | 0.0 | 0.00 | 0.00 | 0.00 | 79 | 1023.4 |
| 20260508134006 | 50 | 194 | 0.0 | 0.0 | 0.00 | 0.00 | 0.00 | 80 | 1023.3 |
| 20260508133503 | 50 | 141 | 0.0 | 0.0 | 0.00 | 0.00 | 0.00 | 80 | 1023.3 |
| 20260508133000 | 50 | 192 | 0.0 | 0.0 | 0.00 | 0.00 | 0.00 | 80 | 1023.3 |
| 20260508132458 | 50 | 135 | 0.0 | 0.0 | 0.00 | 0.00 | 0.00 | 80 | 1023.2 |
| 20260508131954 | 49 | 176 | 0.0 | 0.0 | 0.00 | 0.00 | 0.00 | 81 | 1023.1 |
| 20260508131449 | 49 | 176 | 0.0 | 0.0 | 0.00 | 0.00 | 0.00 | 82 | 1022.9 |
| 20260508130946 | 48 | 137 | 0.0 | 0.0 | 0.00 | 0.00 | 0.00 | 84 | 1022.9 |
| 20260508130444 | 48 | 148 | 0.0 | 0.0 | 0.00 | 0.00 | 0.00 | 84 | 1022.9 |
| 20260508125939 | 48 | 144 | 0.0 | 0.0 | 0.00 | 0.00 | 0.00 | 84 | 1022.8 |
| 20260508125435 | 48 | 144 | 0.0 | 0.0 | 0.00 | 0.00 | 0.00 | 84 | 1022.6 |
| 20260508124934 | 47 | 155 | 0.0 | 0.0 | 0.00 | 0.00 | 0.00 | 84 | 1022.7 |
| 20260508124431 | 47 | 165 | 0.0 | 0.0 | 0.00 | 0.00 | 0.00 | 84 | 1022.5 |
| 20260508123928 | 47 | 119 | 0.0 | 0.0 | 0.00 | 0.00 | 0.00 | 84 | 1022.8 |
| 20260508123427 | 47 | 140 | 0.0 | 0.0 | 0.00 | 0.00 | 0.00 | 84 | 1022.6 |
| 20260508122923 | 48 | 154 | 0.0 | 0.0 | 0.00 | 0.00 | 0.00 | 84 | 1022.4 |
| 20260508122420 | 48 | 150 | 0.0 | 0.0 | 0.00 | 0.00 | 0.00 | 84 | 1022.4 |
| 20260508121917 | 48 | 149 | 0.0 | 0.0 | 0.00 | 0.00 | 0.00 | 84 | 1022.4 |
| 20260508121415 | 48 | 138 | 0.0 | 0.0 | 0.00 | 0.00 | 0.00 | 84 | 1022.2 |
| 20260508120913 | 48 | 167 | 0.0 | 0.0 | 0.00 | 0.00 | 0.00 | 84 | 1022.2 |
| 20260508120410 | 48 | 143 | 0.0 | 0.0 | 0.00 | 0.00 | 0.00 | 84 | 1022.2 |
| 20260508115908 | 48 | 156 | 0.0 | 0.0 | 0.00 | 0.00 | 0.00 | 84 | 1022.0 |
| 20260508115406 | 48 | 176 | 0.0 | 0.0 | 0.00 | 0.00 | 0.00 | 84 | 1022.0 |
| 20260508114901 | 48 | 143 | 0.0 | 0.0 | 0.00 | 0.00 | 0.00 | 84 | 1022.2 |
| 20260508114359 | 48 | 152 | 0.0 | 0.0 | 0.00 | 0.00 | 0.00 | 84 | 1022.0 |
| 20260508113855 | 48 | 170 | 0.0 | 0.0 | 0.00 | 0.00 | 0.00 | 84 | 1022.2 |
| 20260508113353 | 48 | 141 | 0.0 | 0.0 | 0.00 | 0.00 | 0.00 | 84 | 1022.0 |
| 20260508112850 | 48 | 146 | 0.0 | 0.0 | 0.00 | 0.00 | 0.00 | 84 | 1021.9 |
| 20260508112347 | 48 | 158 | 0.0 | 0.0 | 0.00 | 0.00 | 0.00 | 85 | 1021.8 |
| 20260508111843 | 48 | 137 | 0.0 | 0.0 | 0.00 | 0.00 | 0.00 | 85 | 1021.7 |
| 20260508111340 | 48 | 138 | 0.0 | 0.0 | 0.00 | 0.00 | 0.00 | 85 | 1021.7 |
| 20260508110838 | 48 | 147 | 0.0 | 0.0 | 0.00 | 0.00 | 0.00 | 85 | 1021.8 |
| 20260508110335 | 48 | 159 | 0.0 | 0.0 | 0.00 | 0.00 | 0.00 | 85 | 1021.6 |
| 20260508105835 | 48 | 140 | 0.0 | 0.0 | 0.00 | 0.00 | 0.00 | 85 | 1021.4 |
| 20260508105332 | 48 | 199 | 0.0 | 0.0 | 0.00 | 0.00 | 0.00 | 84 | 1021.5 |
| 20260508104829 | 48 | 128 | 0.0 | 0.0 | 0.00 | 0.00 | 0.00 | 84 | 1021.3 |
| 20260508104325 | 48 | 154 | 0.0 | 0.0 | 0.00 | 0.00 | 0.00 | 85 | 1021.3 |
| 20260508103823 | 48 | 166 | 0.0 | 0.0 | 0.00 | 0.00 | 0.00 | 85 | 1021.5 |
| 20260508103320 | 48 | 175 | 0.0 | 0.0 | 0.00 | 0.00 | 0.00 | 85 | 1021.4 |
| 20260508102817 | 48 | 161 | 0.0 | 0.0 | 0.00 | 0.00 | 0.00 | 85 | 1021.1 |
| 20260508102315 | 48 | 132 | 0.0 | 0.0 | 0.00 | 0.00 | 0.00 | 85 | 1021.2 |
| 20260508101812 | 48 | 126 | 0.0 | 0.0 | 0.00 | 0.00 | 0.00 | 85 | 1021.3 |
| 20260508101310 | 48 | 135 | 0.0 | 0.0 | 0.00 | 0.00 | 0.00 | 85 | 1021.3 |
| 20260508100807 | 48 | 151 | 0.0 | 0.0 | 0.00 | 0.00 | 0.00 | 85 | 1021.0 |
| 20260508100306 | 48 | 140 | 0.0 | 0.0 | 0.00 | 0.00 | 0.00 | 85 | 1021.2 |
| 20260508095801 | 48 | 159 | 0.0 | 0.0 | 0.00 | 0.00 | 0.00 | 85 | 1021.2 |
| 20260508095259 | 48 | 163 | 0.0 | 0.0 | 0.00 | 0.00 | 0.00 | 84 | 1021.3 |
| 20260508094755 | 48 | 155 | 0.0 | 0.0 | 0.00 | 0.00 | 0.00 | 84 | 1021.0 |
| 20260508094252 | 48 | 150 | 0.0 | 0.0 | 0.00 | 0.00 | 0.00 | 84 | 1021.2 |
| 20260508093749 | 48 | 155 | 0.0 | 0.0 | 0.00 | 0.00 | 0.00 | 84 | 1021.2 |
| 20260508093247 | 49 | 148 | 0.0 | 0.0 | 0.00 | 0.00 | 0.00 | 84 | 1021.0 |
| 20260508092743 | 49 | 148 | 0.0 | 0.0 | 0.00 | 0.00 | 0.00 | 84 | 1021.1 |
| 20260508092242 | 49 | 159 | 0.0 | 0.0 | 0.00 | 0.00 | 0.00 | 84 | 1021.2 |
| 20260508091740 | 49 | 178 | 0.0 | 0.0 | 0.00 | 0.00 | 0.00 | 83 | 1021.2 |
| 20260508091236 | 49 | 154 | 0.0 | 0.0 | 0.00 | 0.00 | 0.00 | 84 | 1021.2 |
| 20260508090734 | 49 | 163 | 0.0 | 0.0 | 0.00 | 0.00 | 0.00 | 84 | 1021.1 |
| 20260508090232 | 49 | 168 | 0.0 | 0.0 | 0.00 | 0.00 | 0.00 | 84 | 1021.1 |
| 20260508085727 | 49 | 138 | 0.0 | 0.0 | 0.00 | 0.00 | 0.00 | 83 | 1021.2 |
| 20260508085225 | 49 | 155 | 0.0 | 0.0 | 0.00 | 0.00 | 0.00 | 83 | 1021.2 |
| 20260508084720 | 49 | 141 | 0.0 | 0.0 | 0.00 | 0.00 | 0.00 | 83 | 1021.0 |
| 20260508084218 | 49 | 136 | 0.0 | 0.0 | 0.00 | 0.00 | 0.00 | 83 | 1021.0 |
| 20260508083715 | 49 | 164 | 0.0 | 0.0 | 0.00 | 0.00 | 0.00 | 83 | 1020.9 |
| 20260508083213 | 49 | 147 | 0.0 | 0.0 | 0.00 | 0.00 | 0.00 | 83 | 1021.1 |
| 20260508082708 | 49 | 185 | 0.0 | 0.0 | 0.00 | 0.00 | 0.00 | 83 | 1020.8 |
| 20260508082206 | 49 | 190 | 0.0 | 0.0 | 0.00 | 0.00 | 0.00 | 83 | 1021.1 |
| 20260508081703 | 49 | 138 | 0.0 | 0.0 | 0.00 | 0.00 | 0.00 | 83 | 1021.1 |
| 20260508081159 | 49 | 179 | 0.0 | 0.0 | 0.00 | 0.00 | 0.00 | 83 | 1020.8 |
| 20260508080657 | 50 | 180 | 0.0 | 0.0 | 0.00 | 0.00 | 0.00 | 82 | 1020.8 |
| 20260508080155 | 50 | 161 | 0.0 | 0.0 | 0.00 | 0.00 | 0.00 | 82 | 1021.0 |
| 20260508075651 | 50 | 154 | 0.0 | 0.0 | 0.00 | 0.00 | 0.00 | 82 | 1020.9 |
| 20260508075148 | 50 | 180 | 0.0 | 0.0 | 0.00 | 0.00 | 0.00 | 82 | 1020.9 |
| 20260508074646 | 50 | 184 | 0.0 | 0.0 | 0.00 | 0.00 | 0.00 | 81 | 1020.9 |
| 20260508074143 | 50 | 184 | 0.0 | 0.0 | 0.00 | 0.00 | 0.00 | 81 | 1020.9 |
| 20260508073640 | 51 | 184 | 0.0 | 0.0 | 0.00 | 0.00 | 0.00 | 80 | 1021.1 |
| 20260508073138 | 51 | 153 | 0.0 | 0.0 | 0.00 | 0.00 | 0.00 | 80 | 1021.1 |
| 20260508072633 | 51 | 145 | 0.0 | 0.0 | 0.00 | 0.00 | 0.00 | 80 | 1021.1 |
| 20260508072130 | 51 | 130 | 0.0 | 0.0 | 0.00 | 0.00 | 0.00 | 80 | 1021.1 |
| 20260508071628 | 50 | 193 | 0.0 | 0.0 | 0.00 | 0.00 | 0.00 | 81 | 1021.3 |
| 20260508071126 | 51 | 202 | 0.0 | 0.0 | 0.00 | 0.00 | 0.00 | 80 | 1021.1 |
| 20260508070623 | 51 | 167 | 0.0 | 0.0 | 0.00 | 0.00 | 0.00 | 80 | 1021.2 |
| 20260508070121 | 51 | 150 | 0.0 | 0.0 | 0.00 | 0.00 | 0.00 | 80 | 1021.1 |
| 20260508065618 | 51 | 147 | 0.0 | 0.0 | 0.00 | 0.00 | 0.00 | 80 | 1021.1 |
| 20260508065116 | 51 | 159 | 0.0 | 0.0 | 0.00 | 0.00 | 0.00 | 79 | 1020.9 |
| 20260508064614 | 51 | 137 | 0.0 | 0.0 | 0.00 | 0.00 | 0.00 | 79 | 1021.1 |
| 20260508064112 | 51 | 151 | 0.0 | 0.0 | 0.00 | 0.00 | 0.00 | 79 | 1021.1 |
| 20260508063609 | 52 | 143 | 0.0 | 3.0 | 0.00 | 0.00 | 0.00 | 79 | 1021.0 |
| 20260508063107 | 52 | 154 | 0.0 | 3.0 | 0.00 | 0.00 | 0.00 | 79 | 1021.0 |
| 20260508062604 | 52 | 178 | 0.0 | 0.0 | 0.00 | 0.00 | 0.00 | 79 | 1021.1 |
| 20260508062100 | 52 | 171 | 0.0 | 0.0 | 0.00 | 0.00 | 0.00 | 78 | 1021.1 |
| 20260508061558 | 52 | 140 | 0.0 | 0.0 | 0.00 | 0.00 | 0.00 | 78 | 1021.2 |
| 20260508061055 | 52 | 133 | 0.0 | 0.0 | 0.00 | 0.00 | 0.00 | 78 | 1020.9 |
| 20260508060552 | 52 | 142 | 0.0 | 0.0 | 0.00 | 0.00 | 0.00 | 77 | 1021.1 |
| 20260508060049 | 53 | 154 | 0.0 | 0.0 | 0.00 | 0.00 | 0.00 | 77 | 1021.2 |
| 20260508055544 | 53 | 131 | 0.0 | 0.0 | 0.00 | 0.00 | 0.00 | 77 | 1021.2 |
| 20260508055042 | 53 | 141 | 0.0 | 0.0 | 0.00 | 0.00 | 0.00 | 77 | 1021.0 |
| 20260508054538 | 53 | 125 | 0.0 | 0.0 | 0.00 | 0.00 | 0.00 | 76 | 1021.3 |
| 20260508054035 | 53 | 146 | 0.0 | 0.0 | 0.00 | 0.00 | 0.00 | 76 | 1021.2 |
| 20260508053532 | 53 | 169 | 0.0 | 0.0 | 0.00 | 0.00 | 0.00 | 76 | 1021.3 |
| 20260508053031 | 54 | 152 | 0.0 | 0.0 | 0.00 | 0.00 | 0.00 | 75 | 1021.4 |
| 20260508052527 | 54 | 170 | 0.0 | 0.0 | 0.00 | 0.00 | 0.00 | 75 | 1021.4 |
| 20260508052024 | 54 | 161 | 0.0 | 0.0 | 0.00 | 0.00 | 0.00 | 75 | 1021.3 |
| 20260508051520 | 53 | 182 | 0.0 | 0.0 | 0.00 | 0.00 | 0.00 | 75 | 1021.3 |
| 20260508051015 | 54 | 181 | 0.0 | 0.0 | 0.00 | 0.00 | 0.00 | 75 | 1021.5 |
| 20260508050512 | 54 | 182 | 0.0 | 0.0 | 0.00 | 0.00 | 0.00 | 74 | 1021.4 |
| 20260508050010 | 54 | 183 | 0.0 | 0.0 | 0.00 | 0.00 | 0.00 | 74 | 1021.2 |
| 20260508045506 | 54 | 183 | 0.0 | 0.0 | 0.00 | 0.00 | 0.00 | 73 | 1021.3 |
| 20260508045003 | 55 | 183 | 0.0 | 0.0 | 0.00 | 0.00 | 0.00 | 72 | 1021.4 |
| 20260508044501 | 55 | 181 | 0.0 | 0.0 | 0.00 | 0.00 | 0.00 | 72 | 1021.3 |
| 20260508043956 | 55 | 184 | 0.0 | 0.0 | 0.00 | 0.00 | 0.00 | 71 | 1021.3 |
| 20260508043453 | 56 | 178 | 0.0 | 0.0 | 0.00 | 0.00 | 0.00 | 70 | 1021.4 |
| 20260508042949 | 56 | 185 | 0.0 | 0.0 | 0.00 | 0.00 | 0.00 | 70 | 1021.3 |
| 20260508042448 | 56 | 185 | 0.0 | 0.0 | 0.00 | 0.00 | 0.00 | 69 | 1021.5 |
| 20260508041944 | 57 | 159 | 0.0 | 0.0 | 0.00 | 0.00 | 0.00 | 68 | 1021.4 |
| 20260508041441 | 57 | 146 | 0.0 | 0.0 | 0.00 | 0.00 | 0.00 | 67 | 1021.4 |
| 20260508040937 | 57 | 169 | 0.0 | 0.0 | 0.00 | 0.00 | 0.00 | 66 | 1021.4 |
| 20260508040435 | 57 | 186 | 0.0 | 0.0 | 0.00 | 0.00 | 0.00 | 66 | 1021.3 |
| 20260508035932 | 57 | 186 | 0.0 | 0.0 | 0.00 | 0.00 | 0.00 | 66 | 1021.2 |
| 20260508035429 | 57 | 186 | 0.0 | 0.0 | 0.00 | 0.00 | 0.00 | 64 | 1021.4 |
| 20260508034926 | 58 | 186 | 0.0 | 0.0 | 0.00 | 0.00 | 0.00 | 62 | 1021.3 |
| 20260508034423 | 59 | 186 | 0.0 | 0.0 | 0.00 | 0.00 | 0.00 | 62 | 1021.3 |
| 20260508033919 | 59 | 186 | 0.0 | 0.0 | 0.00 | 0.00 | 0.00 | 59 | 1021.3 |
| 20260508033418 | 60 | 180 | 0.0 | 0.0 | 0.00 | 0.00 | 0.00 | 59 | 1021.1 |
| 20260508032915 | 60 | 191 | 0.0 | 0.0 | 0.00 | 0.00 | 0.00 | 57 | 1021.1 |
| 20260508032412 | 61 | 209 | 0.0 | 0.0 | 0.00 | 0.00 | 0.00 | 56 | 1021.3 |
| 20260508031909 | 62 | 227 | 0.0 | 0.0 | 0.00 | 0.00 | 0.00 | 55 | 1021.3 |
| 20260508031407 | 62 | 230 | 0.0 | 0.0 | 0.00 | 0.00 | 0.00 | 54 | 1021.2 |
| 20260508030902 | 62 | 230 | 0.0 | 0.0 | 0.00 | 0.00 | 0.00 | 53 | 1021.1 |
| 20260508030359 | 62 | 285 | 0.0 | 0.0 | 0.00 | 0.00 | 0.00 | 53 | 1021.1 |
| 20260508025856 | 62 | 250 | 0.0 | 0.0 | 0.00 | 0.00 | 0.00 | 54 | 1021.2 |
| 20260508025353 | 63 | 217 | 0.0 | 0.0 | 0.00 | 0.00 | 0.00 | 53 | 1021.3 |
| 20260508024850 | 63 | 224 | 0.0 | 0.0 | 0.00 | 0.00 | 0.00 | 52 | 1021.2 |
| 20260508024347 | 63 | 253 | 0.0 | 0.0 | 0.00 | 0.00 | 0.00 | 52 | 1021.2 |
| 20260508023843 | 63 | 235 | 0.0 | 0.0 | 0.00 | 0.00 | 0.00 | 53 | 1021.4 |
| 20260508023340 | 64 | 222 | 0.0 | 0.0 | 0.00 | 0.00 | 0.00 | 52 | 1021.3 |
| 20260508022837 | 64 | 245 | 0.0 | 0.0 | 0.00 | 0.00 | 0.00 | 51 | 1021.5 |
| 20260508022332 | 64 | 280 | 0.0 | 0.0 | 0.00 | 0.00 | 0.00 | 52 | 1021.3 |
| 20260508021830 | 64 | 222 | 0.0 | 0.0 | 0.00 | 0.00 | 0.00 | 52 | 1021.4 |
| 20260508021326 | 64 | 267 | 0.0 | 0.0 | 0.00 | 0.00 | 0.00 | 51 | 1021.2 |
| 20260508020822 | 64 | 225 | 0.0 | 0.0 | 0.00 | 0.00 | 0.00 | 50 | 1021.4 |
| 20260508020320 | 65 | 221 | 0.0 | 0.0 | 0.00 | 0.00 | 0.00 | 50 | 1021.5 |
| 20260508015817 | 65 | 215 | 0.0 | 0.0 | 0.00 | 0.00 | 0.00 | 50 | 1021.6 |
| 20260508015314 | 65 | 237 | 0.0 | 0.0 | 0.00 | 0.00 | 0.00 | 51 | 1021.7 |
| 20260508014811 | 64 | 280 | 0.0 | 0.0 | 0.00 | 0.00 | 0.00 | 51 | 1021.3 |
| 20260508014308 | 64 | 249 | 0.0 | 0.0 | 0.00 | 0.00 | 0.00 | 51 | 1021.7 |
| 20260508013803 | 64 | 226 | 0.0 | 0.0 | 0.00 | 0.00 | 0.00 | 51 | 1021.8 |
| 20260508013300 | 64 | 222 | 0.0 | 0.0 | 0.00 | 0.00 | 0.00 | 50 | 1021.6 |
| 20260508012757 | 65 | 255 | 0.0 | 0.0 | 0.00 | 0.00 | 0.00 | 50 | 1021.6 |
| 20260508012255 | 65 | 297 | 0.0 | 0.0 | 0.00 | 0.00 | 0.00 | 49 | 1021.7 |
| 20260508011753 | 65 | 269 | 0.0 | 5.0 | 0.00 | 0.00 | 0.00 | 50 | 1021.7 |
| 20260508011250 | 66 | 256 | 0.0 | 5.0 | 0.00 | 0.00 | 0.00 | 49 | 1021.7 |
| 20260508010747 | 65 | 237 | 0.0 | 0.0 | 0.00 | 0.00 | 0.00 | 49 | 1021.8 |
| 20260508010244 | 66 | 279 | 1.0 | 7.0 | 0.00 | 0.00 | 0.00 | 48 | 1021.9 |
| 20260508005741 | 66 | 263 | 0.0 | 0.0 | 0.00 | 0.00 | 0.00 | 49 | 1021.9 |
| 20260508005238 | 67 | 278 | 2.0 | 5.0 | 0.00 | 0.00 | 0.00 | 47 | 1022.2 |
| 20260508004733 | 67 | 228 | 0.0 | 0.0 | 0.00 | 0.00 | 0.00 | 48 | 1022.0 |
| 20260508004230 | 67 | 194 | 0.0 | 3.0 | 0.00 | 0.00 | 0.00 | 48 | 1022.0 |
| 20260508003727 | 67 | 283 | 1.0 | 7.0 | 0.00 | 0.00 | 0.00 | 47 | 1022.1 |
| 20260508003224 | 66 | 216 | 0.0 | 0.0 | 0.00 | 0.00 | 0.00 | 48 | 1022.1 |
| 20260508002721 | 67 | 229 | 0.0 | 0.0 | 0.00 | 0.00 | 0.00 | 48 | 1022.2 |
| 20260508002218 | 68 | 226 | 0.0 | 0.0 | 0.00 | 0.00 | 0.00 | 47 | 1022.2 |
| 20260508001714 | 67 | 236 | 0.0 | 3.0 | 0.00 | 0.00 | 0.00 | 48 | 1022.3 |
| 20260508001209 | 68 | 241 | 0.0 | 0.0 | 0.00 | 0.00 | 0.00 | 47 | 1022.3 |
| 20260508000706 | 68 | 281 | 1.0 | 5.0 | 0.00 | 0.00 | 0.00 | 46 | 1022.2 |
| 20260508000204 | 69 | 284 | 1.0 | 7.0 | 0.00 | 0.00 | 0.00 | 45 | 1022.1 |
| 20260507235659 | 69 | 235 | 0.0 | 0.0 | 0.00 | 0.00 | 0.00 | 44 | 1022.3 |
| 20260507235157 | 68 | 273 | 0.0 | 0.0 | 0.00 | 0.00 | 0.00 | 46 | 1022.2 |
| 20260507234654 | 69 | 206 | 0.0 | 0.0 | 0.00 | 0.00 | 0.00 | 45 | 1022.4 |
| 20260507234150 | 68 | 265 | 0.0 | 3.0 | 0.00 | 0.00 | 0.00 | 46 | 1022.2 |
| 20260507233647 | 69 | 189 | 0.0 | 0.0 | 0.00 | 0.00 | 0.00 | 44 | 1022.2 |
| 20260507233145 | 68 | 67 | 0.0 | 0.0 | 0.00 | 0.00 | 0.00 | 46 | 1022.2 |
| 20260507232642 | 69 | 264 | 1.0 | 5.0 | 0.00 | 0.00 | 0.00 | 44 | 1022.4 |
| 20260507232139 | 67 | 263 | 3.0 | 5.0 | 0.00 | 0.00 | 0.00 | 46 | 1022.5 |
| 20260507231635 | 69 | 237 | 0.0 | 0.0 | 0.00 | 0.00 | 0.00 | 45 | 1022.3 |
| 20260507231133 | 68 | 242 | 0.0 | 0.0 | 0.00 | 0.00 | 0.00 | 47 | 1022.5 |
| 20260507230629 | 66 | 226 | 0.0 | 0.0 | 0.00 | 0.00 | 0.00 | 48 | 1022.5 |
| 20260507230126 | 67 | 84 | 0.0 | 0.0 | 0.00 | 0.00 | 0.00 | 46 | 1022.6 |
| 20260507225620 | 68 | 343 | 0.0 | 0.0 | 0.00 | 0.00 | 0.00 | 45 | 1022.6 |
| 20260507225117 | 70 | 193 | 0.0 | 0.0 | 0.00 | 0.00 | 0.00 | 45 | 1022.7 |
| 20260507224613 | 68 | 122 | 0.0 | 0.0 | 0.00 | 0.00 | 0.00 | 45 | 1022.7 |
| 20260507224110 | 67 | 186 | 0.0 | 0.0 | 0.00 | 0.00 | 0.00 | 47 | 1022.7 |
| 20260507223606 | 66 | 281 | 0.0 | 0.0 | 0.00 | 0.00 | 0.00 | 48 | 1022.9 |
| 20260507223103 | 66 | 321 | 1.0 | 7.0 | 0.00 | 0.00 | 0.00 | 48 | 1022.8 |
| 20260507222600 | 67 | 276 | 5.0 | 10.0 | 0.00 | 0.00 | 0.00 | 46 | 1023.0 |
| 20260507222056 | 67 | 250 | 0.0 | 0.0 | 0.00 | 0.00 | 0.00 | 46 | 1023.0 |
| 20260507221552 | 67 | 218 | 0.0 | 5.0 | 0.00 | 0.00 | 0.00 | 48 | 1023.1 |
| 20260507221049 | 69 | 251 | 2.0 | 3.0 | 0.00 | 0.00 | 0.00 | 46 | 1023.0 |
| 20260507220547 | 67 | 97 | 2.0 | 7.0 | 0.00 | 0.00 | 0.00 | 45 | 1023.1 |
| 20260507220044 | 66 | 187 | 0.0 | 0.0 | 0.00 | 0.00 | 0.00 | 47 | 1023.1 |
| 20260507215540 | 66 | 106 | 0.0 | 0.0 | 0.00 | 0.00 | 0.00 | 47 | 1023.3 |
| 20260507215038 | 65 | 219 | 0.0 | 3.0 | 0.00 | 0.00 | 0.00 | 50 | 1023.3 |
| 20260507214535 | 67 | 254 | 0.0 | 0.0 | 0.00 | 0.00 | 0.00 | 46 | 1023.2 |
| 20260507214031 | 68 | 290 | 0.0 | 3.0 | 0.00 | 0.00 | 0.00 | 47 | 1023.3 |
| 20260507213527 | 67 | 260 | 0.0 | 0.0 | 0.00 | 0.00 | 0.00 | 50 | 1023.3 |
| 20260507213025 | 66 | 81 | 0.0 | 0.0 | 0.00 | 0.00 | 0.00 | 48 | 1023.5 |
| 20260507212520 | 69 | 209 | 0.0 | 0.0 | 0.00 | 0.00 | 0.00 | 49 | 1023.4 |
| 20260507212017 | 66 | 290 | 0.0 | 0.0 | 0.00 | 0.00 | 0.00 | 50 | 1023.5 |